Regional Weather Roundup
Issued by NWS

Home | Current Version | Previous Version | Graphics & Text | Print | Product List | Glossary On
Versions: 1 2 3 4 5 6 7 8 9 10 11 12 13 14 15 16 17 18 19 20 21 22 23 24 25 26 27 28 29 30 31 32 33 34 35 36 37 38 39 40 41 42 43 44 45 46 47 48 49 50
000
ASUS43 KMPX 160110
RWRMN
WEATHER ROUNDUP FOR MINNESOTA
NATIONAL WEATHER SERVICE TWIN CITIES/CHANHASSEN MN
800 PM CDT MON SEP 15 2014


NOTE: "FAIR" INDICATES FEW OR NO CLOUDS BELOW 12,000 FEET WITH NO
SIGNIFICANT WEATHER AND/OR OBSTRUCTIONS TO VISIBILITY. N/A MEANS
CURRENT SKY AND/OR WEATHER CONDITIONS ARE NOT AVAILABLE.

MNZ060>063-068>070-160200-
   Twin Cities Metro

CITY           SKY/WX    TMP DP  RH WIND       PRES   REMARKS
TWIN CITIES    CLEAR     54  38  54 W5        30.20S
ST PAUL        CLEAR     51  40  65 SW3       30.21R
CRYSTAL        CLEAR     53  39  59 CALM      30.19R
BLAINE         PTCLDY    54  41  62 NW5       30.20R
LAKEVILLE      CLEAR     48  41  76 CALM      30.21R
EDEN PRAIRIE   CLEAR     54  39  57 CALM      30.20R
SOUTH ST PAUL  CLEAR     53  38  58 CALM      30.20R
LAKE ELMO      FAIR      50  41  71 CALM      30.21R
$$
MNZ001>005-007-008-013>017-022>024-027-028-160200-
   Northwest Minnesota

CITY           SKY/WX    TMP DP  RH WIND       PRES   REMARKS
BEMIDJI        PTCLDY    51  38  62 S5        30.12F
HALLOCK        CLEAR     55  43  62 W7        30.05S
ROSEAU         CLEAR     50  43  76 S3        30.06S
WARROAD        CLEAR     52  43  71 S3        30.07S
THIEF RVR FALL CLEAR     52  39  62 SW7       30.08F
CROOKSTON      CLEAR     54  43  66 SW8       30.10S
FOSSTON        CLEAR     48  37  66 S7        30.12F HAZE
DETROIT LAKES  CLEAR     54  37  54 SW6       30.17S
MOORHEAD       CLEAR     57  41  54 S6        30.15F
PARK RAPIDS    CLEAR     48  37  65 SW7       30.15F
MAHNOMEN       FAIR      50  39  64 S7        30.13S
$$
MNZ006-009>011-018-025>026-160200-
   North Central Minnesota

CITY           SKY/WX    TMP DP  RH WIND       PRES   REMARKS
BAUDETTE       CLEAR     49  40  71 S3        30.07F
FLAG ISLAND    CLEAR     55  43  62 SW6       30.03F
INTL FALLS     CLEAR     41  38  89 SW3       30.09S
WASKISH        MOCLDY    52  45  76 CALM      30.10S
BIG FORK       CLEAR     46  39  76 S1        30.13F
LONGVILLE      CLEAR     43  41  93 CALM      30.15S
GRAND RAPIDS   CLEAR     43  36  75 S5        30.14F
CRANE LAKE     CLEAR     43  39  87 CALM      30.12S
ORR            CLEAR     46  37  71 CALM      30.09F
COOK           CLEAR     46  41  81 CALM      30.12F
WALKER         FAIR      49  40  72 CALM      30.14F
$$
MNZ012-019>021-037-160200-
   Northeast Minnesota

CITY           SKY/WX    TMP DP  RH WIND       PRES   REMARKS
DULUTH         PTCLDY    48  37  65 W7        30.15S
ELY            CLEAR     46  37  71 SW3       30.11S
HIBBING        CLEAR     44  38  79 SW5       30.13F
EVELETH        CLEAR     43  37  81 SW3       30.14F
DULUTH HARBOR  CLEAR     55  43  62 W7        30.16S
TWO HARBORS    PTCLDY    45  37  76 CALM      30.13S
SILVER BAY     CLEAR     43  43 100 CALM      30.12R
GRAND MARAIS     N/A     49  41  74 NW3       30.10R
G MARAIS ARPRT CLEAR     45  36  70 W5        30.11R
$$
MNZ029>031-032-039>041-046>048-054>057-064-160200-
   West Central Minnesota

CITY           SKY/WX    TMP DP  RH WIND       PRES   REMARKS
FERGUS FALLS   CLEAR     54  36  50 CALM      30.18S
WHEATON        CLEAR     50  37  62 S5        30.21S
MORRIS         CLEAR     54  39  58 CALM      30.19F
ALEXANDRIA     CLEAR     53  37  54 CALM      30.20F
ELBOW LAKE     FAIR      51  39  63 CALM      30.18F
WADENA         CLEAR     46  39  76 CALM      30.17F
GLENWOOD       CLEAR     54  37  54 CALM      30.21S
APPLETON       CLEAR     52  43  71 CALM      30.20S
BENSON         CLEAR     50  39  66 CALM      30.21S
ORTONVILLE     CLEAR     52  37  58 CALM      30.20S
MADISON        CLEAR     55  43  62 CALM      30.21S
WILLMAR        FAIR      52  41  66 CALM      30.23S
$$
MNZ033>034-036-042>043-049>051-058-059-160200-
   Central Minnesota

CITY           SKY/WX    TMP DP  RH WIND       PRES   REMARKS
ST CLOUD       CLEAR     51  42  71 CALM      30.20R
SAUK CENTRE    FAIR      49  38  67 CALM      30.21S
PAYNESVILLE    CLEAR     46  39  78 CALM      30.21S
AITKIN         CLEAR     46  39  76 CALM      30.16S
PINE RIVER     CLEAR     46  39  76 CALM      30.19F
BRAINERD       CLEAR     47  41  80 S3        30.18S
STAPLES        CLEAR     46  37  71 CALM      30.18S
LONG PRAIRIE   FAIR      50  37  62 SW3       30.20S
LITTLE FALLS   CLEAR     46  39  76 CALM      30.19S
LITCHFIELD     CLEAR     54  45  71 CALM      30.21S
BUFFALO        CLEAR     52  40  61 CALM      30.21S
MAPLE LAKE     CLEAR     49  44  83 CALM      30.21S
$$
MNZ037-044-045-052-053-160200-
   East Central Minnesota

CITY           SKY/WX    TMP DP  RH WIND       PRES   REMARKS
PRINCETON      CLEAR     48  43  81 CALM      30.20S
MORA           CLEAR     45  41  87 CALM      30.21S
CAMBRIDGE      CLEAR     50  39  66 CALM      30.18S
RUSH CITY      MOCLDY    46  38  74 CALM      30.20R
MOOSE LAKE     CLEAR     43  39  87 CALM      30.16S
HINCKLEY       FAIR      45  41  87 CALM      30.18S
CLOQUET        CLEAR     46  39  76 SW3       30.16S
MCGREGOR       CLEAR     46  41  81 SW3       30.17S
$$
MNZ071>073-080-081-089-090-097-098-160200-
   Southwest Minnesota

CITY           SKY/WX    TMP DP  RH WIND       PRES   REMARKS
MONTEVIDEO     CLEAR     54  36  50 CALM      30.22S
GRANITE FALLS  CLEAR     47  42  82 CALM      30.23S
CANBY          CLEAR     52  41  66 CALM      30.22S
MARSHALL       CLEAR     55  37  50 N3        30.21S
REDWOOD FALLS  CLEAR     53  38  56 NW6       30.21S
OLIVIA         CLEAR     52  41  66 W3        30.21S
PIPESTONE      CLEAR     55  39  54 CALM      30.22F
WINDOM         CLEAR     52  45  76 CALM      30.23R
WORTHINGTON    CLEAR     52  43  71 CALM      30.24R
JACKSON        CLEAR     48  43  81 CALM      30.23S
TRACY          CLEAR     51  44  76 CALM      30.23S
SLAYTON        CLEAR     53  42  66 CALM      30.23S
$$
MNZ065>067-074>077-082>085-091>093-160200-
   South Central Minnesota

CITY           SKY/WX    TMP DP  RH WIND       PRES   REMARKS
MANKATO        CLEAR     55  37  50 CALM      30.21S
NEW ULM        CLEAR     52  45  76 CALM      30.21S
ST JAMES       CLEAR     52  45  76 CALM      30.23S
FAIRMONT       CLEAR     52  39  62 N3        30.22S
GLENCOE        CLEAR     51  42  69 CALM      30.20S
FARIBAULT      CLEAR     48  43  81 CALM      30.21S
OWATONNA       CLEAR     46  43  87 CALM      30.22R
WASECA         CLEAR     46  37  71 CALM      30.23S
ALBERT LEA     CLEAR     50  45  81 CALM      30.22R
$$
MNZ078>079-086>088-094>096-160200-
   Southeast Minnesota

CITY           SKY/WX    TMP DP  RH WIND       PRES   REMARKS
ROCHESTER      PTCLDY    48  41  76 NW7       30.21S
RED WING       CLEAR     48  45  87 N5        30.19R
STANTON        CLEAR     51  42  70 W3        30.19S
DODGE CENTER   CLEAR     52  43  71 CALM      30.21S
WINONA         CLEAR     52  46  82 CALM      30.20R
AUSTIN         PTCLDY    52  43  71 CALM      30.21R
PRESTON        PTCLDY    47  46  93 NW3       30.21R
$$
ABBREVIATIONS USED IN REMARKS
   TC - TEMPERATURES IN CELSIUS
  WCI - WIND CHILL INDEX
   HX - HEAT INDEX
  VSB - VISIBILITY
$$



USA.gov is the U.S. government's official web portal to all federal, state and local government web resources and services.